Regional Weather Roundup
Issued by NWS Green Bay, WI

Home | Current Version | Previous Version | Text Only | Print | Product List | Glossary On
Versions: 1 2 3 4 5 6 7 8 9 10 11 12 13 14 15 16 17 18 19 20 21 22 23 24 25 26 27 28 29 30 31 32 33 34 35 36 37 38 39 40 41 42 43 44 45 46 47 48 49 50
000
ASUS43 KGRB 252111
RWRGRB

NORTH-CENTRAL AND NORTHEAST WISCONSIN REGIONAL WEATHER ROUNDUP
NATIONAL WEATHER SERVICE GREEN BAY WI
400 PM CDT WED MAY 25 2016

WIZ005-009-010>012-018-019-252200-
NORTH CENTRAL WISCONSIN

CITY           SKY/WX    TMP DP  RH WIND       PRES   REMARKS
IRONWOOD       CLOUDY    75  55  50 E10       29.87F
MANITOWISH WTR NOT AVBL
ARBOR VITAE    PTSUNNY   77  53  43 SE12      29.92S
EAGLE RIVER      N/A     76  49  39 SE9G17    29.94S
LAND O LAKES   SUNNY     76  54  46 E10G17    29.95F
RHINELANDER    MOSUNNY   76  56  49 E20       29.93F
PHILLIPS       CLOUDY    75  59  56 SE13G20   29.88F
ANTIGO         CLOUDY    73  59  60 SE18      29.94S
TOMAHAWK       CLOUDY    73  59  59 SE3       29.91S
MERRILL        NOT AVBL
$$

WIZ013-073-252200-
NORTHEAST WISCONSIN

CITY           SKY/WX    TMP DP  RH WIND       PRES   REMARKS
IRON MOUNTAIN  SUNNY     72  57  59 E10       29.95F
MARINETTE      MOSUNNY   60  55  83 E14       29.99F
OCONTO         MOSUNNY   66  58  76 E13       29.95F
$$

WIZ017-030-035>037-045-252200-
CENTRAL WISCONSIN

CITY           SKY/WX    TMP DP  RH WIND       PRES   REMARKS
MEDFORD        RAIN      67  63  85 SE7       29.92R
WAUSAU         CLOUDY    75  59  57 E12G20    29.90S
MOSINEE        TSTM      72  61  68 E12       29.92S
MARSHFIELD     TSTM      68  64  87 E6        29.88F FOG
WISC RAPIDS    TSTM      68  63  84 SE15      29.91R
STEVENS POINT  RAIN      69  60  72 E13       29.91R
WAUPACA        CLOUDY    78  60  54 E10       29.90S
SHAWANO        MOSUNNY   76  60  57 E15       29.94F
CLINTONVILLE   CLOUDY    73  59  60 E10       29.91F
WAUTOMA        HVY RAIN  72  64  76 NE13      29.87F
$$

WIZ038-039-048-051-252200-
FOX VALLEY

CITY           SKY/WX    TMP DP  RH WIND       PRES   REMARKS
NWS GREEN BAY  MOSUNNY   71  59  65 NE14      29.94F
APPLETON       PTSUNNY   75  55  50 E10G17    29.90F
OSHKOSH        MOSUNNY   74  59  59 E17G25    29.88F
FOND DU LAC    MOSUNNY   77  61  57 SE17G24   29.88F
$$

WIZ022-050-052-252200-
EAST CENTRAL WISCONSIN

CITY           SKY/WX    TMP DP  RH WIND       PRES   REMARKS
EPHRAIM        CLOUDY    59  56  88 E14       29.98F
STURGEON BAY   NOT AVBL
MANITOWOC      PTSUNNY   61  55  81 E14       29.96F
SHEBOYGAN      MOSUNNY   59  53  80 E13       29.96F
$$

LMZ563-521-522-541>543-252200-
LAKESHORE

STATION/POSITION TIME  TEMP    WIND        PRES    VSBY  WAVE
                       AIR SEA DIR/SP/G                  HT/PER
                 (UTC) (F)     (DEG/KT/KT) (MB)    (MI)  (FT/S)
SHEBOYGAN LKSHOR 2100   48      20/  9/ 10 1014.9F
KEWAUNEE LKSHORE 2000   52      30/  7/ 10 1015.5F
ALGOMA MARINA    2017           50/ 17/ 23   N/A
NORTHPORT PIER   2000   56      60/ 11/ 17 1016.6F
N MID LAKE BUOY  2050   49 45   50/ 10/ 10 1015.7F         0
SISTER BAY LKSHO 2004   65      90/  8/ 15   N/A
CHAMBERS ISLAND  2000   57      30/ 11/ 15 1016.6F
MENOMINEE LKSHOR 2000   55      20/ 13/ 14 1015.3F
$$




USA.gov is the U.S. government's official web portal to all federal, state and local government web resources and services.